Date,TemperatureHighF,TemperatureAvgF,TemperatureLowF,DewpointHighF,DewpointAvgF,DewpointLowF,HumidityHigh,HumidityAvg,HumidityLow,PressureMaxIn,PressureMinIn,WindSpeedMaxMPH,WindSpeedAvgMPH,GustSpeedMaxMPH,PrecipitationSumIn
2013-1-1,70.3,65.0,55.9,66.0,61.8,53.0,92,89,83,30.07,24.48,20,10,0,0.01
2013-1-2,55.8,50.7,45.5,53.0,47.5,43.0,91,88,85,30.12,25.74,22,11,0,0.06
2013-1-3,46.5,42.9,38.8,43.0,39.0,33.0,92,86,76,30.19,26.09,17,6,0,0.24
2013-1-4,56.8,45.3,37.3,41.0,34.6,30.0,81,68,42,30.33,21.34,16,3,0,0.00
2013-1-5,54.6,48.9,43.8,43.0,37.5,32.0,73,65,51,29.78,22.95,14,1,0,0.00
2013-1-6,51.9,49.7,47.6,48.0,44.2,41.0,90,82,70,30.09,27.00,15,4,0,0.03
2013-1-7,61.5,50.0,39.8,49.0,41.8,37.0,90,75,45,30.39,24.27,7,1,0,0.00
2013-1-8,68.8,59.1,48.6,61.0,53.3,41.0,88,81,72,30.32,24.19,7,1,0,0.00
2013-1-9,69.4,65.3,60.2,66.0,62.3,57.0,92,90,85,29.28,0.00,14,2,0,0.01
2013-1-10,72.9,55.8,60.5,69.0,35.2,-99.9,93,74,82,30.31,25.17,19,-179,0,0.36
2013-1-11,75.4,58.5,59.8,70.0,38.4,-99.9,92,73,78,32.35,20.57,18,-164,0,0.01
2013-1-12,75.2,71.3,68.0,69.0,67.5,66.0,92,88,77,30.09,20.20,17,6,0,0.00
2013-1-13,74.5,30.1,70.7,70.0,-29.0,-99.9,91,38,86,27.92,21.70,19,-574,0,0.00
2013-1-14,69.4,24.0,50.4,67.0,-34.8,-99.9,93,39,85,28.49,21.88,20,-575,0,0.00
2013-1-15,70.2,35.5,50.1,68.0,-0.5,-99.9,94,61,91,26.51,20.16,11,-346,0,0.00
2013-1-16,54.2,40.6,45.0,52.0,22.0,-99.9,93,77,92,25.25,21.74,20,-162,0,0.08
2013-1-17,50.5,43.7,39.9,43.0,36.8,-99.9,93,81,70,29.87,24.14,33,-2,0,0.00
2013-1-18,61.5,46.4,38.4,45.0,38.8,36.0,89,77,42,27.57,24.00,17,5,0,0.00
2013-1-19,61.7,36.1,39.3,52.0,-0.7,-99.9,91,53,56,30.64,20.38,6,-320,0,0.00
2013-1-20,65.9,51.1,41.2,56.0,46.9,39.0,93,86,64,28.08,20.98,9,1,0,0.01
2013-1-21,64.0,43.4,46.8,52.0,18.3,-99.9,92,64,53,30.68,0.00,10,-193,0,0.01
2013-1-22,59.2,40.6,41.4,45.0,13.7,-99.9,79,53,46,32.23,0.00,10,-166,0,0.00
2013-1-23,59.8,23.6,39.8,53.0,-27.5,-99.9,87,42,74,28.11,21.62,9,-483,0,0.00
2013-1-24,61.8,39.4,50.6,57.0,7.0,-99.9,92,63,84,28.11,20.07,11,-290,0,0.00
2013-1-25,58.7,3.7,58.5,56.0,-89.9,-99.9,91,6,91,29.41,0.00,2,-935,0,0.00
2013-1-26,64.1,28.1,56.6,61.0,-27.3,-99.9,92,41,88,31.24,0.00,8,-530,0,0.00
2013-1-27,56.8,10.0,54.9,55.0,-72.4,-99.9,92,16,92,25.60,0.00,0,-820,0,0.01
2013-1-28,69.8,8.8,58.2,65.0,-77.6,-99.9,93,13,85,30.38,0.00,13,-860,0,0.00
2013-1-29,-200.0,0.0,200.0,-99.9,-99.9,-99.9,0,0,100,28.42,0.00,0,-999,0,0.00
2013-1-30,59.1,17.9,48.7,54.0,-52.3,-99.9,91,25,67,20.92,0.00,28,-660,0,0.01
2013-1-31,48.6,20.6,44.6,40.0,-39.0,-99.9,77,32,62,27.53,0.00,26,-551,0,0.00
2013-2-1,60.1,25.9,41.4,45.0,-31.4,-99.9,68,29,41,25.46,0.00,17,-497,0,0.00
2013-2-2,61.0,49.6,36.1,55.0,39.9,25.0,90,71,46,28.02,20.32,9,2,0,0.00
2013-2-3,61.2,51.3,46.9,54.0,40.2,-99.9,92,78,53,29.27,23.49,15,-61,0,0.00
2013-2-4,61.2,36.7,47.2,54.0,0.1,-99.9,90,50,60,30.14,23.93,3,-302,0,0.06
2013-2-5,64.0,26.8,56.0,61.0,-27.4,-99.9,93,43,89,27.97,20.23,12,-531,0,0.46
2013-2-6,55.7,0.6,55.7,54.0,-98.3,-99.9,93,1,93,26.55,0.00,0,-988,0,0.00
2013-2-7,72.6,37.9,56.2,64.0,-7.6,-99.9,92,47,65,28.45,0.00,13,-419,0,0.00
2013-2-8,62.6,31.9,52.7,60.0,-12.2,-99.9,93,53,90,29.95,21.00,4,-430,0,0.01
2013-2-9,-200.0,0.0,200.0,-99.9,-99.9,-99.9,0,0,100,30.40,21.45,0,-999,0,0.00
2013-2-10,71.6,0.8,71.6,-99.9,-99.9,-99.9,0,0,100,30.02,21.45,18,-988,0,0.00
2013-2-11,62.9,34.4,57.9,61.0,-9.4,-99.9,93,52,89,30.15,27.21,19,-421,0,0.90
2013-2-12,66.1,35.7,57.3,64.0,-5.6,-99.9,93,55,90,29.36,24.76,14,-396,0,0.34
2013-2-13,50.9,20.2,46.5,48.0,-40.3,-99.9,90,36,86,29.93,24.76,22,-589,0,0.12
2013-2-14,58.8,47.5,41.1,46.0,42.2,39.0,91,82,56,29.60,23.41,11,3,0,0.00
2013-2-15,62.1,51.1,39.3,50.0,45.0,37.0,93,80,51,29.97,0.00,22,5,0,0.01
2013-2-16,53.0,49.0,38.8,46.0,35.2,24.0,78,60,42,29.16,22.71,28,17,0,0.00
2013-2-17,50.4,41.1,30.7,35.0,29.5,22.0,85,65,40,30.07,22.33,13,2,0,0.00
2013-2-18,63.1,52.9,37.6,56.0,44.6,35.0,90,75,56,30.22,25.11,21,6,0,0.00
2013-2-19,65.2,59.5,46.3,60.0,48.8,34.0,92,70,36,30.27,20.04,23,10,0,0.27
2013-2-20,59.1,47.5,41.1,44.0,34.1,27.0,84,61,36,30.35,25.11,10,2,0,0.00
2013-2-21,68.3,58.4,41.6,65.0,50.4,34.0,90,75,59,30.16,26.08,18,6,0,0.00
2013-2-22,70.0,64.8,59.5,67.0,62.5,58.0,93,92,89,30.01,27.02,14,3,0,0.39
2013-2-23,59.5,57.5,55.8,58.0,55.3,53.0,93,92,91,29.96,27.27,19,5,0,1.19
2013-2-24,64.0,57.8,49.9,59.0,54.6,48.0,93,89,79,30.05,21.54,10,1,0,0.30
2013-2-25,67.5,62.5,58.9,65.0,60.0,57.0,93,91,86,26.73,20.87,26,6,0,2.83
2013-2-26,63.5,56.4,52.3,61.0,48.9,42.0,92,76,64,29.97,24.52,21,13,0,0.00
2013-2-27,59.3,55.6,48.2,55.0,47.8,43.0,87,75,62,30.04,21.19,18,7,0,0.00
2013-2-28,56.7,52.4,46.8,51.0,41.7,36.0,86,68,47,30.09,23.03,18,11,0,0.00
2013-3-1,55.1,48.0,41.5,45.0,38.4,34.0,80,70,59,31.66,0.00,25,6,0,0.00
2013-3-2,46.2,42.2,38.2,35.0,32.7,29.0,78,69,60,28.23,0.00,26,16,0,0.00
2013-3-3,52.5,41.9,34.8,42.0,31.0,26.0,86,66,43,30.38,20.93,24,10,0,0.00
2013-3-4,62.0,52.2,36.1,56.0,45.7,34.0,91,79,64,29.57,0.00,19,6,0,0.00
2013-3-5,62.9,59.4,51.4,60.0,54.7,43.0,91,84,69,29.27,20.11,23,10,0,0.00
2013-3-6,58.2,47.4,43.7,46.0,29.6,-99.9,80,58,41,29.53,20.16,24,-40,0,0.00
2013-3-7,59.1,48.9,39.1,49.0,40.3,32.0,85,73,55,30.35,20.47,11,3,0,0.00
2013-3-8,66.1,52.6,40.4,54.0,46.7,38.0,91,81,57,30.06,24.30,9,1,0,0.00
2013-3-9,70.8,59.2,47.6,59.0,52.4,45.0,91,80,44,30.11,23.70,13,3,0,0.00
2013-3-10,73.3,66.2,60.2,65.0,60.9,57.0,90,83,73,30.52,21.98,19,7,0,0.00
2013-3-11,71.2,58.7,49.5,66.0,55.2,46.0,92,88,81,29.80,22.40,26,10,0,0.69
2013-3-12,64.5,52.1,43.1,48.0,42.5,38.0,89,71,45,29.69,21.37,21,10,0,0.01
2013-3-13,64.6,55.1,44.5,46.0,40.0,31.0,87,60,32,29.31,21.92,22,8,0,0.00
2013-3-14,64.7,52.3,41.1,49.0,35.8,27.0,80,55,29,29.26,0.00,16,7,0,0.00
2013-3-15,62.1,56.1,44.9,57.0,50.8,43.0,91,82,66,29.80,0.00,19,7,0,0.00
2013-3-16,67.2,62.0,52.4,60.0,57.3,50.0,92,85,76,29.54,0.00,14,6,0,0.00
2013-3-17,70.5,63.0,54.4,63.0,59.2,52.0,92,87,77,28.23,0.00,13,3,0,0.00
2013-3-18,74.1,68.7,62.3,69.0,65.5,59.0,92,89,85,27.56,0.00,16,6,0,0.00
2013-3-19,76.7,65.7,58.8,65.0,56.4,46.0,92,74,45,27.06,26.26,23,4,0,0.00
2013-3-20,64.9,59.0,49.8,46.0,40.4,36.0,70,51,36,26.89,21.45,20,6,0,0.00
2013-3-21,65.0,53.8,45.1,46.0,38.4,32.0,73,57,39,28.96,23.79,14,4,0,0.00
2013-3-22,67.7,59.1,50.4,59.0,50.9,44.0,88,75,61,28.26,0.00,16,3,0,0.03
2013-3-23,70.9,36.9,62.2,66.0,-9.0,-99.9,92,47,70,30.30,0.00,19,-425,0,0.83
2013-3-24,71.3,32.7,51.4,67.0,-19.7,-99.9,92,39,57,29.90,0.00,31,-475,0,0.00
2013-3-25,57.3,49.6,42.3,43.0,36.3,30.0,79,62,42,32.13,21.72,26,19,0,0.00
2013-3-26,55.5,46.4,38.7,36.0,31.8,29.0,76,58,41,28.22,20.60,21,10,0,0.00
2013-3-27,58.4,47.3,35.1,46.0,35.3,29.0,80,64,44,30.31,20.03,11,4,0,0.00
2013-3-28,60.4,53.9,41.5,51.0,45.2,37.0,90,73,44,25.21,0.00,20,5,0,0.00
2013-3-29,64.8,55.9,43.8,58.0,50.7,41.0,92,83,68,29.03,0.00,13,3,0,0.00
2013-3-30,68.5,61.7,51.6,62.0,57.0,49.0,92,85,75,29.73,22.92,15,5,0,0.00
2013-3-31,70.1,65.8,60.8,66.0,62.8,59.0,92,90,83,26.94,20.28,19,6,0,0.16
2013-4-1,72.3,43.3,56.8,63.0,8.2,-99.9,92,58,64,29.32,0.00,15,-313,0,0.01
2013-4-2,75.9,63.4,51.4,62.0,55.0,48.0,93,76,38,29.68,20.44,19,3,0,0.00
2013-4-3,63.1,45.1,56.9,60.0,16.6,-99.9,92,66,83,30.03,20.96,10,-259,0,0.46
2013-4-4,65.0,60.2,56.7,61.0,57.4,54.0,93,90,86,30.02,25.25,22,8,0,0.01
2013-4-5,66.6,57.7,51.9,55.0,51.5,49.0,92,80,62,30.18,26.15,24,13,0,0.00
2013-4-6,67.7,58.4,46.2,59.0,51.8,44.0,92,79,50,30.24,26.84,18,4,0,0.00
2013-4-7,72.1,63.5,50.2,63.0,58.0,48.0,92,82,65,30.21,23.83,13,3,0,0.00
2013-4-8,77.5,70.1,63.2,68.0,65.2,61.0,93,85,69,30.14,25.97,17,4,0,0.01
2013-4-9,79.7,73.3,68.6,70.0,68.2,65.0,92,84,71,30.12,25.12,17,5,0,0.00
2013-4-10,79.3,72.2,65.1,70.0,67.3,63.0,92,84,72,30.10,20.49,20,6,0,0.00
2013-4-11,78.9,70.0,62.9,74.0,63.4,-99.9,93,86,85,29.95,28.82,27,-23,0,1.16
2013-4-12,74.0,59.1,53.6,60.0,42.5,-99.9,91,66,45,30.05,20.03,24,-57,0,0.00
2013-4-13,75.0,64.5,51.9,62.0,54.7,48.0,89,72,43,30.12,22.86,15,2,0,0.00
2013-4-14,68.5,38.5,58.7,66.0,-2.9,-99.9,93,54,81,30.00,28.66,5,-394,0,0.45
2013-4-15,77.6,70.8,65.0,72.0,67.7,63.0,93,90,81,30.03,25.37,10,1,0,0.00
2013-4-16,81.2,73.5,67.5,72.0,68.6,65.0,92,85,69,30.09,22.55,13,4,0,0.00
2013-4-17,81.0,73.6,67.3,74.0,68.2,64.0,92,84,66,26.89,0.00,12,2,0,0.00
2013-4-18,79.3,73.3,65.1,73.0,69.0,63.0,92,86,76,30.52,21.82,21,7,0,0.00
2013-4-19,75.6,59.8,49.2,73.0,56.8,47.0,92,89,83,25.99,20.64,30,13,0,0.16
2013-4-20,69.2,56.6,43.8,48.0,44.3,39.0,90,66,40,28.48,0.00,16,3,0,0.00
2013-4-21,71.2,59.5,47.8,58.0,49.8,42.0,88,72,44,28.35,0.00,12,2,0,0.00
2013-4-22,74.8,65.2,55.3,66.0,58.5,49.0,90,79,66,29.26,20.03,10,2,0,0.00
2013-4-23,74.6,67.1,59.7,66.0,62.1,57.0,92,84,71,31.69,20.36,15,3,0,0.00
2013-4-24,75.7,67.4,60.9,70.0,64.2,59.0,93,89,77,30.89,21.14,18,3,0,0.22
2013-4-25,74.7,64.2,56.2,65.0,57.6,50.0,92,80,56,29.12,0.00,17,8,0,0.00
2013-4-26,78.3,66.8,57.0,66.0,53.6,44.0,84,64,40,29.12,0.00,15,3,0,0.00
2013-4-27,78.3,69.9,60.9,70.0,64.4,58.0,91,83,68,31.93,0.00,17,4,0,0.00
2013-4-28,75.2,70.9,67.5,70.0,67.1,64.0,92,88,79,29.75,0.00,14,4,0,0.00
2013-4-29,76.8,48.5,66.2,70.0,11.4,-99.9,91,55,71,29.78,0.00,10,-331,0,0.00
2013-4-30,79.8,72.2,65.1,70.0,66.7,63.0,92,83,67,29.04,0.00,12,2,0,0.01
2013-5-1,76.0,39.7,70.2,70.0,-6.9,-99.9,91,49,82,31.38,20.82,8,-446,0,0.13
2013-5-2,73.6,9.8,70.4,68.0,-77.2,-99.9,90,12,83,26.64,0.00,3,-864,0,0.07
2013-5-3,-200.0,0.0,200.0,-99.9,-99.9,-99.9,0,0,100,31.05,0.00,0,-999,0,0.00
2013-5-4,49.9,3.6,47.8,46.0,-89.3,-99.9,86,6,84,30.65,24.49,21,-924,0,0.00
2013-5-5,-200.0,0.0,200.0,-99.9,-99.9,-99.9,0,0,100,29.98,22.23,0,-999,0,0.00
2013-5-6,67.5,43.4,56.9,61.0,6.9,-99.9,83,51,62,29.58,0.00,17,-299,0,0.00
2013-5-7,70.3,65.8,58.6,65.0,60.4,55.0,91,83,70,31.78,0.00,15,6,0,0.00
2013-5-8,77.2,67.3,57.9,69.0,63.5,56.0,93,87,58,30.66,0.00,19,4,0,0.00
2013-5-9,74.1,43.4,61.8,69.0,4.5,-99.9,92,55,78,30.22,22.21,15,-364,0,0.01
2013-5-10,73.6,65.6,66.0,68.0,55.5,-99.9,92,81,71,25.88,0.00,26,-58,0,0.19
2013-5-11,67.1,12.9,63.9,65.0,-67.4,-99.9,92,18,92,24.04,20.48,9,-799,0,0.01
2013-5-12,78.2,48.6,65.0,65.0,7.0,-99.9,86,44,53,29.96,22.55,16,-329,0,0.00
2013-5-13,76.3,66.8,56.7,62.0,51.2,44.0,78,58,40,29.65,21.07,18,6,0,0.00
2013-5-14,73.8,68.0,57.0,65.0,60.8,54.0,91,78,67,29.54,0.00,17,5,0,0.00
2013-5-15,76.6,60.5,62.4,66.0,40.6,-99.9,91,67,48,29.47,21.30,14,-129,0,0.00
2013-5-16,77.8,72.2,66.6,71.0,67.1,62.0,91,84,74,29.47,20.02,16,5,0,0.00
2013-5-17,78.8,73.8,67.9,73.0,70.2,65.0,92,88,80,29.99,20.24,15,7,0,0.00
2013-5-18,78.2,42.0,74.6,74.0,-4.7,-99.9,91,49,84,29.28,24.32,15,-442,0,0.00
2013-5-19,79.3,13.6,74.9,75.0,-69.3,-99.9,90,15,81,30.68,25.58,10,-822,0,0.00
2013-5-20,79.7,15.1,73.2,73.0,-65.6,-99.9,91,17,77,30.73,24.50,9,-799,0,0.00
2013-5-21,83.0,66.5,69.5,75.0,49.8,-99.9,92,75,65,30.11,24.43,16,-120,0,0.01
2013-5-22,69.0,2.2,69.0,67.0,-94.5,-99.9,92,3,92,30.02,25.91,0,-966,0,0.00
2013-5-23,80.3,9.3,77.6,73.0,-79.6,-99.9,84,9,73,30.02,24.39,10,-880,0,0.00
2013-5-24,86.4,27.6,70.5,71.0,-44.4,-99.9,66,19,48,30.11,21.64,21,-659,0,0.00
2013-5-25,83.1,61.8,62.5,65.0,36.0,-99.9,86,55,39,30.29,22.96,12,-144,0,0.00
2013-5-26,83.3,74.1,64.4,72.0,66.6,61.0,90,78,47,30.28,21.37,17,4,0,0.00
2013-5-27,82.8,76.0,69.5,71.0,67.1,62.0,91,75,52,30.24,23.46,19,4,0,0.00
2013-5-28,83.0,74.8,65.1,74.0,68.5,62.0,91,81,63,30.16,21.39,18,4,0,0.01
2013-5-29,77.7,39.3,71.0,73.0,-10.4,-99.9,91,47,83,30.11,21.28,13,-462,0,0.00
2013-5-30,84.1,5.8,73.7,72.0,-87.3,-99.9,90,6,67,28.95,20.05,12,-925,0,0.00
2013-5-31,83.5,45.1,74.2,75.0,-1.6,-99.9,90,46,69,29.56,20.25,11,-429,0,0.00
2013-6-1,82.3,43.3,73.6,76.0,-2.6,-99.9,91,49,79,29.39,20.39,17,-435,0,0.00
2013-6-2,82.3,12.5,75.5,77.0,-72.4,-99.9,91,14,84,29.52,20.70,20,-841,0,0.00
2013-6-3,-200.0,0.0,200.0,-99.9,-99.9,-99.9,0,0,100,29.99,24.67,0,-999,0,0.00
2013-6-4,85.4,25.9,72.9,78.0,-43.5,-99.9,91,27,73,30.02,25.99,13,-676,0,0.00
2013-6-5,85.9,76.2,71.7,78.0,67.0,-99.9,91,81,71,30.00,20.81,14,-40,0,0.43
2013-6-6,-200.0,0.0,200.0,-99.9,-99.9,-99.9,0,0,100,29.90,22.00,0,-999,0,0.00
2013-6-7,82.4,14.9,80.4,77.0,-68.1,-99.9,83,15,78,29.96,22.00,12,-816,0,0.00
2013-6-8,82.0,10.4,79.5,76.0,-77.3,-99.9,87,11,82,30.09,26.89,6,-870,0,0.00
2013-6-9,79.4,7.5,78.0,75.0,-83.2,-99.9,89,8,87,30.12,28.53,16,-903,0,0.00
2013-6-10,77.5,9.1,76.8,74.0,-79.3,-99.9,90,11,89,30.12,28.43,7,-880,0,0.00
2013-6-11,-200.0,0.0,200.0,-99.9,-99.9,-99.9,0,0,100,30.03,21.82,0,-999,0,0.00
2013-6-12,-200.0,0.0,200.0,-99.9,-99.9,-99.9,0,0,100,30.15,20.08,0,-999,0,0.00
2013-6-13,-200.0,0.0,200.0,-99.9,-99.9,-99.9,0,0,100,30.08,20.95,0,-999,0,0.00
2013-6-14,90.3,4.3,81.0,77.0,-90.7,-99.9,86,4,62,30.53,20.39,14,-946,0,0.00
2013-6-15,85.9,28.9,79.3,81.0,-38.1,-99.9,90,29,78,28.79,20.38,15,-650,0,0.00
2013-6-16,85.5,39.0,76.5,79.0,-15.7,-99.9,91,42,80,30.10,20.57,9,-509,0,0.00
2013-6-17,85.4,0.9,85.4,-99.9,-99.9,-99.9,0,0,100,27.23,21.28,15,-988,0,0.00
2013-6-18,76.5,1.6,76.0,74.0,-96.3,-99.9,90,2,88,27.81,0.00,12,-978,0,0.02
2013-6-19,85.0,17.7,76.5,76.0,-61.4,-99.9,89,18,73,30.02,22.71,7,-778,0,0.00
2013-6-20,82.9,23.7,76.3,76.0,-48.8,-99.9,90,24,78,29.98,21.02,11,-706,0,0.00
2013-6-21,-200.0,0.0,200.0,-99.9,-99.9,-99.9,0,0,100,29.97,20.87,0,-999,0,0.00
2013-6-22,-200.0,0.0,200.0,-99.9,-99.9,-99.9,0,0,100,29.96,21.42,0,-999,0,0.00
2013-6-23,74.6,3.9,74.6,72.0,-90.9,-99.9,91,5,91,29.92,24.80,0,-947,0,0.00
2013-6-24,-200.0,0.0,200.0,-99.9,-99.9,-99.9,0,0,100,29.80,21.08,0,-999,0,0.00
2013-6-25,77.1,16.6,74.5,74.0,-62.0,-99.9,91,20,90,29.64,23.04,2,-780,0,0.00
2013-6-26,85.0,23.1,84.1,79.0,-51.1,-99.9,84,22,79,30.11,0.00,14,-723,0,0.00
2013-6-27,88.3,80.5,82.2,82.0,69.5,-99.9,89,78,73,30.06,0.00,16,-48,0,0.00
2013-6-28,-200.0,0.0,200.0,-99.9,-99.9,-99.9,0,0,100,28.09,23.90,0,-999,0,0.00
2013-6-29,86.5,0.9,86.5,82.0,-98.0,-99.9,87,1,87,29.06,20.71,9,-988,0,0.00
2013-6-30,-200.0,0.0,200.0,-99.9,-99.9,-99.9,0,0,100,29.79,22.05,0,-999,0,0.00
2013-7-1,-200.0,0.0,200.0,-99.9,-99.9,-99.9,0,0,100,29.91,20.17,0,-999,0,0.00
2013-7-2,-200.0,0.0,200.0,-99.9,-99.9,-99.9,75,1,75,29.99,23.57,4,-989,0,0.00
2013-7-3,-200.0,0.0,200.0,-99.9,-99.9,-99.9,0,0,100,30.07,25.73,0,-999,0,0.00
2013-7-4,-200.0,0.0,200.0,-99.9,-99.9,-99.9,0,0,100,30.08,26.42,0,-999,0,0.00
2013-7-5,-200.0,0.0,200.0,-99.9,-99.9,-99.9,0,0,100,30.16,29.51,0,-999,0,0.00
2013-7-6,75.7,10.8,75.2,73.0,-75.2,-99.9,91,13,91,30.14,23.29,0,-856,0,0.00
2013-7-7,75.4,5.6,75.2,73.0,-87.2,-99.9,91,7,91,30.18,28.45,1,-925,0,0.00
2013-7-8,84.2,39.6,76.1,78.0,-13.0,-99.9,92,43,78,30.24,27.68,15,-505,0,0.00
2013-7-9,81.6,36.5,73.5,77.0,-16.8,-99.9,92,44,84,30.26,25.90,5,-520,0,0.00
2013-7-10,76.2,0.8,76.2,74.0,-98.1,-99.9,92,1,92,30.18,28.88,0,-989,0,0.00
2013-7-11,-200.0,0.0,200.0,-99.9,-99.9,-99.9,0,0,100,30.08,29.30,0,-999,0,0.00
2013-7-12,78.2,1.8,78.2,75.0,-95.8,-99.9,90,2,90,29.99,27.09,0,-976,0,0.00
2013-7-13,-200.0,0.0,200.0,-99.9,-99.9,-99.9,0,0,100,30.05,29.16,0,-988,0,0.00
2013-7-14,-200.0,0.0,200.0,-99.9,-99.9,-99.9,0,0,100,30.10,28.61,0,-999,0,0.00
2013-7-15,-200.0,0.0,200.0,-99.9,-99.9,-99.9,0,0,100,30.20,29.55,0,-999,0,0.00
2013-7-16,-200.0,0.0,200.0,-99.9,-99.9,-99.9,0,0,100,30.23,24.41,0,-999,0,0.00
2013-7-17,-200.0,0.0,200.0,-99.9,-99.9,-99.9,0,0,100,30.27,23.02,0,-999,0,0.00
2013-7-18,76.6,2.4,76.5,74.0,-94.5,-99.9,91,3,91,30.21,26.28,0,-968,0,0.00
2013-7-19,79.3,9.6,74.8,76.0,-78.1,-99.9,92,11,89,30.13,23.92,4,-874,0,0.01
2013-7-20,-200.0,0.0,200.0,-99.9,-99.9,-99.9,0,0,100,30.05,25.77,0,-999,0,0.00
2013-7-21,-200.0,0.0,200.0,-99.9,-99.9,-99.9,0,0,100,30.12,25.68,0,-999,0,0.00
2013-7-22,-200.0,0.0,200.0,-99.9,-99.9,-99.9,0,0,100,30.11,23.47,4,-988,0,0.00
2013-7-23,-200.0,0.0,200.0,-99.9,-99.9,-99.9,0,0,100,30.09,24.43,0,-999,0,0.00
2013-7-24,-200.0,0.0,200.0,-99.9,-99.9,-99.9,0,0,100,30.02,25.59,0,-999,0,0.00
2013-7-25,87.2,0.9,87.2,78.0,-98.0,-99.9,75,1,75,30.00,21.33,3,-988,0,0.00
2013-7-26,83.5,0.9,83.5,76.0,-98.0,-99.9,77,1,77,30.09,20.70,1,-988,0,0.00
2013-7-27,-200.0,0.0,200.0,-99.9,-99.9,-99.9,0,0,100,30.04,23.62,0,-999,0,0.00
2013-7-28,-200.0,0.0,200.0,-99.9,-99.9,-99.9,0,0,100,29.96,21.09,0,-999,0,0.00
2013-7-29,-200.0,0.0,200.0,-99.9,-99.9,-99.9,92,1,92,30.12,23.90,0,-986,0,0.00
2013-7-30,77.2,0.8,77.2,-99.9,-99.9,-99.9,0,0,100,30.22,23.01,0,-988,0,0.00
2013-7-31,79.6,0.9,79.6,77.0,-98.0,-99.9,90,1,90,29.45,24.52,0,-988,0,0.00
2013-8-1,-200.0,0.0,200.0,-99.9,-99.9,-99.9,0,0,100,30.02,20.89,0,-999,0,0.00
2013-8-2,-200.0,0.0,200.0,-99.9,-99.9,-99.9,0,0,100,30.03,21.62,0,-999,0,0.00
2013-8-3,88.4,2.8,87.9,81.0,-94.1,-99.9,78,2,77,29.57,22.02,13,-967,0,0.00
2013-8-4,-200.0,0.0,200.0,-99.9,-99.9,-99.9,0,0,100,29.77,23.93,0,-999,0,0.00
2013-8-5,83.0,2.1,82.7,78.0,-95.4,-99.9,86,2,85,30.08,20.51,4,-961,0,0.00
2013-8-6,88.8,5.5,85.2,83.0,-88.4,-99.9,84,5,78,30.05,21.54,15,-935,0,0.06
2013-8-7,87.4,9.6,79.7,81.0,-79.5,-99.9,91,10,72,30.04,26.73,5,-874,0,0.00
2013-8-8,79.6,0.9,79.6,77.0,-97.9,-99.9,91,1,91,29.98,20.22,0,-988,0,0.00
2013-8-9,-200.0,0.0,200.0,-99.9,-99.9,-99.9,0,0,100,30.02,23.98,0,-999,0,0.00
2013-8-10,-200.0,0.0,200.0,-99.9,-99.9,-99.9,0,0,100,29.83,22.00,4,-988,0,0.00
2013-8-11,-200.0,0.0,200.0,-99.9,-99.9,-99.9,0,0,100,30.16,21.97,0,-999,0,0.00
2013-8-12,-200.0,0.0,200.0,-99.9,-99.9,-99.9,0,0,100,30.15,26.79,0,-999,0,0.00
2013-8-13,83.5,0.9,83.5,79.0,-98.0,-99.9,86,1,86,29.57,25.05,16,-988,0,0.00
2013-8-14,-200.0,0.0,200.0,-99.9,-99.9,-99.9,0,0,100,30.02,0.00,0,-999,0,0.00
2013-8-15,-200.0,0.0,200.0,-99.9,-99.9,-99.9,0,0,100,27.83,20.89,0,-999,0,0.00
2013-8-16,83.7,2.7,82.3,77.0,-94.2,-99.9,83,3,77,27.56,22.62,8,-955,0,0.00
2013-8-17,-200.0,0.0,200.0,-99.9,-99.9,-99.9,0,0,100,27.56,21.09,0,-999,0,0.00
2013-8-18,-200.0,0.0,200.0,-99.9,-99.9,-99.9,0,0,100,23.86,0.00,0,-999,0,0.00
2013-8-19,83.8,17.8,76.7,78.0,-60.9,-99.9,91,19,82,29.47,0.00,12,-778,0,0.00
2013-8-20,82.3,21.9,74.7,77.0,-51.1,-99.9,92,25,81,28.18,20.72,5,-720,0,0.00
2013-8-21,87.4,49.3,73.7,79.0,11.0,-99.9,92,57,73,28.04,21.88,4,-361,0,0.00
2013-8-22,77.7,15.7,72.5,74.0,-63.7,-99.9,92,19,89,30.31,20.80,1,-788,0,0.00
2013-8-23,-200.0,0.0,200.0,-99.9,-99.9,-99.9,92,1,92,27.51,0.00,0,-988,0,0.00
2013-8-24,-200.0,0.0,200.0,-99.9,-99.9,-99.9,0,0,100,25.09,0.00,0,-999,0,0.00
2013-8-25,-200.0,0.0,200.0,-99.9,-99.9,-99.9,0,0,100,29.92,0.00,0,-999,0,0.00
2013-8-26,-200.0,0.0,200.0,-99.9,-99.9,-99.9,0,0,100,30.12,0.00,0,-999,0,0.00
2013-8-27,-200.0,0.0,200.0,-99.9,-99.9,-99.9,58,1,58,26.36,20.03,5,-988,0,0.00
2013-8-28,-200.0,0.0,200.0,-99.9,-99.9,-99.9,0,0,100,29.77,22.62,0,-999,0,0.00
2013-8-29,87.6,57.3,75.3,76.0,16.9,-99.9,89,48,58,29.45,23.01,11,-313,0,0.00
2013-8-30,87.9,83.5,79.2,79.0,75.9,74.0,86,78,66,29.31,0.00,13,6,0,0.00
2013-8-31,84.2,31.2,80.5,76.0,-33.8,-99.9,82,29,71,30.47,22.50,11,-618,0,0.00
2013-9-1,81.9,4.2,80.2,76.0,-90.7,-99.9,86,4,82,27.49,21.73,2,-947,0,0.00
2013-9-2,-200.0,0.0,200.0,-99.9,-99.9,-99.9,0,0,100,29.32,23.57,0,-999,0,0.00
2013-9-3,-200.0,0.0,200.0,-99.9,-99.9,-99.9,0,0,100,30.00,20.77,0,-999,0,0.00
2013-9-4,-200.0,0.0,200.0,-99.9,-99.9,-99.9,0,0,100,30.02,21.29,0,-999,0,0.00
2013-9-5,-200.0,0.0,200.0,-99.9,-99.9,-99.9,0,0,100,30.05,20.39,0,-999,0,0.00
2013-9-6,-200.0,0.0,200.0,-99.9,-99.9,-99.9,0,0,100,29.94,20.84,0,-999,0,0.00
2013-9-7,-200.0,0.0,200.0,-99.9,-99.9,-99.9,0,0,100,30.09,20.23,0,-999,0,0.00
2013-9-8,-200.0,0.0,200.0,-99.9,-99.9,-99.9,0,0,100,29.88,20.35,0,-999,0,0.00
2013-9-9,80.9,14.8,76.6,74.0,-67.1,-99.9,90,16,77,29.62,22.62,1,-810,0,0.00
2013-9-10,92.8,80.9,75.6,77.0,74.1,72.0,90,80,59,30.12,21.46,12,1,0,0.00
2013-9-11,91.1,53.7,73.6,76.0,16.9,-99.9,90,57,56,30.18,24.91,2,-312,0,0.00
2013-9-12,91.8,61.9,73.8,77.0,34.6,-99.9,90,63,54,30.10,24.18,4,-220,0,0.00
2013-9-13,79.5,28.2,75.3,75.0,-36.0,-99.9,92,33,87,30.00,26.38,5,-631,0,0.00
2013-9-14,-200.0,0.0,200.0,-99.9,-99.9,-99.9,0,0,100,30.02,21.70,0,-999,0,0.00
2013-9-15,-200.0,0.0,200.0,-99.9,-99.9,-99.9,0,0,100,30.11,21.45,0,-999,0,0.00
2013-9-16,-200.0,0.0,200.0,-99.9,-99.9,-99.9,0,0,100,30.18,20.31,0,-999,0,0.00
2013-9-17,-200.0,0.0,200.0,-99.9,-99.9,-99.9,0,0,100,30.09,24.60,0,-999,0,0.00
2013-9-18,76.2,0.8,76.2,-99.9,-99.9,-99.9,0,0,100,30.15,26.21,1,-988,0,0.00
2013-9-19,87.9,12.0,82.8,74.0,-75.9,-99.9,74,9,56,30.10,22.36,10,-859,0,0.00
2013-9-20,-200.0,0.0,200.0,-99.9,-99.9,-99.9,0,0,100,30.05,25.19,0,-999,0,0.00
2013-9-21,-200.0,0.0,200.0,-99.9,-99.9,-99.9,0,0,100,29.90,27.40,0,-999,0,0.00
2013-9-22,78.0,17.4,70.6,72.0,-62.2,-99.9,86,19,82,29.86,23.07,9,-767,0,0.00
2013-9-23,89.9,6.4,85.6,78.0,-86.8,-99.9,77,5,66,29.90,20.53,4,-925,0,0.00
2013-9-24,-200.0,0.0,200.0,-99.9,-99.9,-99.9,0,0,100,29.86,20.55,0,-999,0,0.00
2013-9-25,77.6,0.8,77.6,73.0,-98.1,-99.9,86,1,86,29.87,23.46,4,-988,0,0.00
2013-9-26,72.5,0.8,72.5,70.0,-98.1,-99.9,92,1,92,29.93,21.50,0,-988,0,0.00
2013-9-27,-200.0,0.0,200.0,-99.9,-99.9,-99.9,0,0,100,29.79,24.24,0,-999,0,0.00
2013-9-28,85.3,27.7,71.0,70.0,-39.9,-99.9,84,26,55,30.12,21.00,4,-641,0,0.00
2013-9-29,82.0,34.7,65.0,69.0,-18.9,-99.9,85,40,60,30.11,23.64,2,-505,0,0.00
2013-9-30,-200.0,0.0,200.0,-99.9,-99.9,-99.9,0,0,100,30.01,22.92,0,-999,0,0.00
2013-10-1,-200.0,0.0,200.0,-99.9,-99.9,-99.9,0,0,100,30.08,21.32,0,-999,0,0.00
2013-10-2,-200.0,0.0,200.0,-99.9,-99.9,-99.9,0,0,100,29.67,26.66,0,-999,0,0.00
2013-10-3,85.3,31.5,75.2,76.0,-30.2,-99.9,92,35,73,30.09,22.96,7,-601,0,0.02
2013-10-4,86.8,79.1,73.9,78.0,74.6,72.0,93,86,70,29.72,20.82,13,1,0,0.01
2013-10-5,86.2,79.4,75.3,78.0,74.9,73.0,93,86,71,29.47,21.59,15,2,0,0.02
2013-10-6,79.3,75.1,71.6,76.0,72.9,70.0,93,92,88,29.94,23.28,24,2,0,0.87
2013-10-7,76.0,68.6,63.5,68.0,59.8,57.0,93,74,54,31.99,23.38,23,13,0,0.00
2013-10-8,78.7,67.2,57.8,66.0,59.5,55.0,90,77,61,31.77,21.92,12,6,0,0.00
2013-10-9,82.6,72.2,66.5,72.0,67.2,62.0,92,84,70,28.34,20.00,9,1,0,0.00
2013-10-10,78.9,71.2,65.0,73.0,67.5,63.0,93,88,74,31.16,20.92,10,2,0,0.00
2013-10-11,81.6,73.0,66.0,73.0,68.8,64.0,93,87,69,28.64,0.00,12,2,0,0.01
2013-10-12,80.3,74.8,66.9,75.0,70.5,65.0,93,86,76,26.69,20.25,11,3,0,0.00
2013-10-13,86.5,77.3,69.4,73.0,69.0,66.0,92,77,54,29.09,23.31,11,2,0,0.00
2013-10-14,84.5,70.0,67.6,71.0,58.2,-99.9,90,75,55,29.24,24.28,9,-52,0,0.00
2013-10-15,79.5,72.0,64.8,70.0,66.5,62.0,91,83,69,31.64,24.16,7,1,0,0.00
2013-10-16,80.1,73.3,65.4,73.0,68.8,63.0,92,86,74,32.15,24.16,13,3,0,0.00
2013-10-17,79.1,60.5,68.0,76.0,37.5,-99.9,92,70,83,28.91,24.11,13,-196,0,0.10
2013-10-18,76.9,56.9,65.6,67.0,34.6,-99.9,91,68,69,30.77,24.11,13,-174,0,0.00
2013-10-19,67.7,2.8,67.3,63.0,-93.1,-99.9,84,4,83,26.07,24.36,0,-957,0,0.00
2013-10-20,-200.0,0.0,200.0,-99.9,-99.9,-99.9,0,0,100,30.40,24.02,0,-999,0,0.00
2013-10-21,-200.0,0.0,200.0,-99.9,-99.9,-99.9,0,0,100,26.86,24.30,0,-999,0,0.00
2013-10-22,65.3,9.1,64.5,63.0,-77.3,-99.9,91,13,88,29.60,24.02,5,-859,0,0.00
2013-10-23,73.5,33.2,58.9,60.0,-26.3,-99.9,85,27,40,32.47,0.00,19,-506,0,0.00
2013-10-24,70.6,42.5,60.9,61.0,-2.9,-99.9,88,41,42,28.48,0.00,12,-375,0,0.00
2013-10-25,67.9,59.6,51.3,61.0,47.9,40.0,91,67,40,28.48,20.33,18,6,0,0.00
2013-10-26,70.3,56.3,45.8,54.0,43.6,37.0,86,64,42,29.35,23.46,6,1,0,0.00
2013-10-27,72.4,56.3,48.9,64.0,41.2,-99.9,91,71,49,29.35,20.53,7,-83,0,0.00
2013-10-28,76.5,63.1,58.7,67.0,49.7,-99.9,91,76,67,28.47,24.11,11,-62,0,0.00
2013-10-29,79.7,68.3,59.5,67.0,61.8,58.0,93,81,55,28.59,24.07,9,1,0,0.00
2013-10-30,79.4,57.3,62.0,71.0,35.2,-99.9,93,69,66,25.72,24.19,12,-179,0,0.00
2013-10-31,78.5,69.9,69.2,73.0,59.6,-99.9,92,81,79,26.54,24.16,16,-56,0,0.02
2013-11-1,75.9,70.6,64.7,73.0,67.1,58.0,93,88,73,24.86,24.14,21,6,0,0.11
2013-11-2,73.7,65.5,58.1,59.0,54.9,47.0,85,69,54,29.32,24.09,18,7,0,0.00
2013-11-3,69.9,47.8,48.8,49.0,19.3,-99.9,86,54,41,29.71,21.75,13,-183,0,0.00
2013-11-4,74.6,67.5,61.3,59.0,56.7,55.0,79,69,55,27.22,24.07,5,1,0,0.00
2013-11-5,77.8,65.7,56.4,63.0,57.0,50.0,84,74,61,29.69,24.18,10,1,0,0.00
2013-11-6,78.4,68.5,59.7,70.0,63.2,54.0,91,83,76,30.43,24.25,10,2,0,0.00
2013-11-7,70.6,51.0,54.3,69.0,29.3,-99.9,93,69,67,28.07,24.08,28,-166,0,0.12
2013-11-8,67.2,55.2,47.7,45.0,43.2,40.0,86,67,37,25.32,24.10,9,1,0,0.00
2013-11-9,71.6,59.6,48.5,64.0,52.5,42.0,88,78,64,28.43,24.05,6,1,0,0.00
2013-11-10,76.0,64.5,57.3,60.0,56.0,50.0,88,75,54,30.49,24.02,12,1,0,0.00
2013-11-11,74.4,58.1,52.6,62.0,43.7,-99.9,91,70,43,30.84,23.99,6,-62,0,0.00
2013-11-12,70.2,57.8,42.8,56.0,48.5,28.0,92,72,55,31.19,24.21,28,10,0,0.00
2013-11-13,56.0,44.0,35.3,33.0,27.0,23.0,74,53,32,27.27,24.08,16,6,0,0.00
2013-11-14,67.2,52.6,37.9,51.0,40.3,26.0,78,64,49,27.27,24.06,6,1,0,0.00
2013-11-15,69.4,63.1,57.9,67.0,59.5,49.0,93,88,68,30.43,26.86,7,2,0,1.61
2013-11-16,72.9,67.3,63.4,69.0,65.0,61.0,93,92,87,32.08,24.48,15,2,0,0.00
2013-11-17,73.2,70.3,67.9,71.0,68.3,66.0,94,93,92,29.43,24.25,16,5,0,0.03
2013-11-18,70.6,66.4,58.4,69.0,61.5,45.0,93,85,56,30.33,25.95,15,3,0,0.19
2013-11-19,63.5,55.4,48.9,48.0,43.2,40.0,78,64,48,30.33,24.14,16,4,0,0.00
2013-11-20,71.3,57.7,47.1,63.0,51.4,39.0,92,80,64,30.08,24.11,6,1,0,0.00
2013-11-21,72.1,62.8,56.0,64.0,58.7,53.0,91,86,74,27.61,24.16,6,1,0,0.00
2013-11-22,75.3,56.3,64.2,69.0,34.6,-99.9,93,73,81,27.50,24.13,10,-173,0,0.00
2013-11-23,66.8,61.0,51.3,65.0,57.9,44.0,93,89,75,29.77,25.19,20,9,0,0.00
2013-11-24,54.7,47.9,42.1,43.0,33.0,29.0,75,57,39,29.68,24.05,20,8,0,0.00
2013-11-25,56.7,36.4,42.1,51.0,4.7,-99.9,80,55,62,30.63,0.00,9,-253,0,0.00
2013-11-26,54.0,33.1,47.6,52.0,-3.0,-99.9,93,60,90,31.70,25.65,27,-337,0,0.06
2013-11-27,48.7,42.9,34.5,45.0,34.6,26.0,92,74,49,31.70,21.14,29,16,0,0.04
2013-11-28,49.2,38.9,29.7,33.0,28.0,24.0,81,66,48,28.95,20.93,13,4,0,0.00
2013-11-29,61.6,45.6,33.5,44.0,32.3,26.0,81,61,37,28.11,0.00,9,2,0,0.00
2013-11-30,66.3,50.1,37.5,58.0,43.2,32.0,92,78,57,31.62,0.00,5,1,0,0.00
2013-12-1,68.1,53.1,44.0,56.0,48.6,42.0,92,85,55,27.22,0.00,5,0,0,0.02
2013-12-2,65.5,58.8,50.1,61.0,54.4,48.0,93,85,68,30.19,24.35,10,2,0,0.00
2013-12-3,69.8,66.5,62.2,66.0,63.7,60.0,93,90,87,30.19,25.23,18,9,0,0.00
2013-12-4,73.8,69.8,65.6,71.0,67.6,64.0,93,92,91,32.34,25.23,15,6,0,0.17
2013-12-5,77.0,74.5,71.2,73.0,71.9,69.0,93,91,87,31.77,24.10,20,13,0,0.01
2013-12-6,76.6,72.2,56.8,73.0,69.8,55.0,93,92,88,30.99,24.55,25,14,0,0.03
2013-12-7,56.2,46.2,44.1,54.0,44.3,42.0,94,93,91,30.82,26.76,17,8,0,0.02
2013-12-8,72.8,59.5,45.7,70.0,57.6,44.0,94,93,88,29.33,24.54,12,4,0,0.00
2013-12-9,71.2,64.6,60.3,69.0,62.2,58.0,93,92,84,27.61,24.37,18,6,0,0.00
2013-12-10,65.9,48.5,41.2,64.0,44.9,37.0,94,87,73,28.25,24.24,28,11,0,0.13
2013-12-11,60.2,49.0,38.4,51.0,41.2,35.0,88,75,61,27.93,24.09,11,3,0,0.00
2013-12-12,56.9,48.6,40.0,41.0,34.0,29.0,73,58,36,26.21,24.10,18,6,0,0.00
2013-12-13,61.6,48.9,36.5,52.0,39.7,26.0,83,71,58,27.32,24.27,5,1,0,0.00
2013-12-14,70.1,60.7,52.3,67.0,58.0,46.0,93,91,75,25.70,24.36,26,5,0,0.13
2013-12-15,53.7,44.9,37.7,52.0,40.1,34.0,92,83,74,25.91,24.17,29,14,0,0.00
2013-12-16,59.7,43.7,34.1,47.0,39.1,32.0,93,85,59,28.09,24.11,12,2,0,0.00
2013-12-17,58.8,48.3,38.6,50.0,42.6,37.0,93,82,57,27.42,24.06,10,1,0,0.01
2013-12-18,64.8,50.6,40.0,52.0,42.9,38.0,93,77,40,27.55,24.06,9,1,0,0.00
2013-12-19,69.4,56.8,42.1,60.0,51.7,40.0,93,83,71,25.92,24.09,11,2,0,0.00
2013-12-20,73.6,67.1,58.9,69.0,64.0,57.0,93,90,80,25.12,24.06,17,4,0,0.01
2013-12-21,76.4,74.1,71.1,73.0,71.3,69.0,92,91,88,24.79,24.02,24,13,0,0.01
2013-12-22,74.2,63.6,55.3,72.0,61.5,53.0,94,93,91,25.07,24.39,21,10,0,1.92
2013-12-23,55.7,49.5,40.9,54.0,46.6,36.0,94,89,81,27.72,24.87,24,12,0,0.00
2013-12-24,52.4,41.7,34.4,37.0,32.9,29.0,89,72,49,25.83,24.02,19,8,0,0.00
2013-12-25,46.1,40.3,31.4,36.0,31.1,27.0,83,70,58,25.80,24.35,9,2,0,0.00
2013-12-26,54.2,46.4,38.7,42.0,38.0,34.0,85,73,58,26.50,24.12,14,3,0,0.00
2013-12-27,61.4,52.1,42.9,41.0,37.9,36.0,81,60,41,26.11,24.02,12,3,0,0.00
2013-12-28,53.8,49.0,47.2,49.0,46.3,41.0,94,90,63,24.98,24.28,19,5,0,2.56
2013-12-29,56.2,43.9,43.5,51.0,31.4,-99.9,94,82,81,25.09,24.04,19,-98,0,0.01
2013-12-30,53.7,48.3,41.1,51.0,46.2,40.0,94,92,86,25.03,24.23,7,0,0,0.00
2013-12-31,51.5,45.9,43.7,50.0,42.9,40.0,93,89,84,24.67,24.14,14,4,0,0.02
2014-1-1,63.2,53.3,44.3,58.0,50.8,42.0,94,91,83,25.66,24.16,12,1,0,0.16
2014-1-2,56.7,22.5,38.3,55.0,-35.6,-99.9,94,39,73,26.48,24.21,25,-566,0,0.13